Probability
0 0 0 0 0 0 0 0 0 0 0 0 0 0 0 0 0 0 0 0 0 0 0 0 0 0 0 0 0 0 0 0 0 0 0 0 0 0 0 0 0 0 0
0 0 0 0 0 0 0 0 0 0 0 0 0 0 0 0 0 0 0 0 0 0 0 0 0 0 0 0 0 0 0 0 0 0 0 0 0 0 0 0 0 0 0
0 0 0 0 0 0 0 0 0 0 0 0 0 0 0 0 0 0 0 0 0 0 0 0 0 0 0 0 0 3 3 3 3 3 0 0 0 0 0 0 0 0 0
0 0 0 0 0 0 0 0 0 0 0 0 0 0 0 0 0 0 0 0 0 0 0 0 0 0 0 0 0 3 6 3 3 3 3 0 0 0 0 0 0 0 0
0 0 0 0 0 0 0 0 0 0 0 0 0 0 0 0 0 0 0 0 0 0 0 0 0 0 0 0 0 0 3 6 3 3 3 0 0 0 0 0 0 0 0
0 0 0 0 0 0 0 0 0 0 0 0 0 0 0 0 0 0 0 0 0 0 0 0 0 0 0 0 0 0 3 6 6 3 0 0 0 0 0 0 0 0 0
0 0 0 0 0 0 0 0 0 0 0 0 0 0 0 0 0 0 0 0 0 0 0 0 0 0 0 0 0 0 0 3 6 6 0 0 0 0 0 0 0 0 0
0 0 0 0 0 0 0 0 0 0 0 0 0 0 0 0 0 0 0 0 0 0 0 0 0 0 0 0 0 0 0 0 3 3 3 0 0 0 0 0 0 0 0
0 0 0 0 0 0 0 0 0 0 0 0 0 0 0 0 0 0 0 0 0 0 0 0 0 0 0 0 0 0 0 0 0 0 0 0 0 0 0 0 0 0 0
0 0 0 0 0 0 0 0 0 0 0 0 0 0 0 0 0 0 0 0 0 0 0 0 0 0 0 0 0 0 0 0 0 0 0 0 0 0 0 0 0 0 0
0 0 0 0 0 0 0 0 0 0 0 0 0 0 0 0 0 0 0 0 0 0 0 0 0 0 0 0 0 0 0 0 0 0 0 0 0 0 0 0 0 0 0
0 0 0 0 0 0 0 0 0 0 0 0 0 0 0 0 0 0 0 0 0 0 0 0 0 0 0 0 0 0 0 0 0 0 0 0 0 0 0 0 0 0 0
0 0 0 0 0 0 0 0 0 0 0 0 0 0 0 0 0 0 0 0 0 0 0 0 0 0 0 0 0 0 0 0 0 0 0 0 0 0 0 0 0 0 0
0 0 0 0 0 0 0 0 0 0 0 0 0 0 0 0 0 0 0 0 0 0 0 0 0 0 0 0 0 0 0 0 0 0 0 0 0 0 0 0 0 0 0
0 0 0 0 0 0 0 0 0 0 0 0 0 0 0 0 0 0 0 0 0 0 0 0 0 0 0 0 0 0 0 0 0 0 0 0 0 0 0 0 0 0 0
0 0 0 0 0 0 0 0 0 0 0 0 0 0 0 0 0 0 0 0 0 0 0 0 0 0 0 0 0 0 0 0 0 0 0 0 0 0 0 0 0 0 0
0 0 0 0 0 0 0 0 0 0 0 0 0 0 0 0 0 0 0 0 0 0 0 0 0 0 0 0 0 0 0 0 0 0 0 0 0 0 0 0 0 0 0
0 0 0 0 0 0 0 0 0 0 0 0 0 0 0 0 0 0 0 0 0 0 0 0 0 0 0 0 0 0 0 0 0 0 0 0 0 0 0 0 0 0 0
0 0 0 0 0 0 0 0 0 0 0 0 0 0 0 0 0 0 0 0 0 0 0 0 0 0 0 0 0 0 0 0 0 0 0 0 0 0 0 0 0 0 0
0 0 0 0 0 0 0 0 0 0 0 0 0 0 0 0 0 0 0 0 0 0 0 0 0 0 0 0 0 0 0 0 0 0 0 0 0 0 0 0 0 0 0
0 0 0 0 0 0 0 0 0 0 0 0 0 0 0 0 0 0 0 0 0 0 0 0 0 0 0 0 0 0 0 0 0 0 0 0 0 0 0 0 0 0 0
0 0 0 0 0 0 0 0 0 0 0 0 0 0 0 0 0 0 0 0 0 0 0 0 0 0 0 0 0 0 0 0 0 0 0 0 0 0 0 0 0 0 0
0 0 0 0 0 0 0 0 0 0 0 0 0 0 0 0 0 0 0 0 0 0 0 0 0 0 0 0 0 0 0 0 0 0 0 0 0 0 0 0 0 0 0
0 0 0 0 0 0 0 0 0 0 0 0 0 0 0 0 0 0 0 0 0 0 0 0 0 0 0 0 0 0 0 0 0 0 0 0 0 0 0 0 0 0 0
0 0 0 0 0 0 0 0 0 0 0 0 0 0 0 0 0 0 0 0 0 0 0 0 0 0 0 0 0 0 0 0 0 0 0 0 0 0 0 0 0 0 0
0 0 0 0 0 0 0 0 0 0 0 0 0 0 0 0 0 0 0 0 0 0 0 0 0 0 0 0 0 0 0 0 0 0 0 0 0 0 0 0 0 0 0
Height
5810 5813 5816 5819 5822 5824 5827 5829 5831 5832 5834 5835 5836 5837 5838 5838 5839 5839 5839 5839 5839 5838 5838 5838 5837 5836 5835 5834 5833 5832 5831 5829 5827 5826 5824 5822 5820 5817 5815 5812 5810 5807 5804
5802 5806 5809 5812 5815 5817 5820 5822 5824 5826 5827 5829 5830 5831 5831 5832 5833 5833 5833 5833 5833 5832 5832 5831 5831 5830 5829 5828 5827 5826 5824 5823 5821 5819 5817 5816 5813 5811 5809 5806 5804 5801 5799
5794 5798 5801 5804 5807 5810 5812 5815 5817 5819 5821 5822 5823 5824 5825 5826 5826 5826 5826 5826 5826 5826 5825 5825 5824 5823 5823 5822 5820 5819 5818 5816 5814 5813 5811 5809 5807 5805 5802 5800 5797 5795 5792
5787 5790 5793 5797 5799 5802 5805 5807 5809 5811 5813 5815 5816 5817 5818 5819 5819 5819 5819 5819 5819 5819 5819 5818 5817 5816 5816 5814 5813 5812 5810 5809 5807 5805 5803 5801 5800 5798 5795 5793 5790 5788 5785
5778 5782 5785 5789 5791 5794 5797 5799 5801 5803 5805 5807 5808 5810 5810 5811 5812 5812 5812 5812 5812 5812 5812 5811 5810 5809 5808 5807 5806 5804 5803 5801 5799 5798 5796 5794 5792 5790 5788 5785 5783 5781 5779
5770 5773 5777 5780 5783 5786 5789 5791 5793 5795 5797 5798 5800 5802 5803 5804 5804 5804 5805 5805 5804 5804 5804 5803 5802 5801 5800 5799 5797 5796 5794 5793 5791 5789 5788 5786 5784 5782 5780 5778 5776 5774 5771
5762 5765 5768 5772 5775 5777 5780 5783 5785 5787 5789 5790 5792 5793 5795 5795 5796 5796 5796 5796 5796 5796 5795 5794 5793 5792 5791 5790 5788 5787 5786 5784 5783 5781 5780 5778 5776 5774 5772 5770 5768 5766 5764
5752 5756 5760 5763 5766 5769 5771 5774 5776 5778 5780 5781 5783 5784 5785 5787 5787 5787 5787 5787 5787 5786 5786 5785 5784 5783 5782 5781 5779 5778 5776 5775 5773 5772 5770 5769 5767 5766 5764 5762 5760 5758 5756
5743 5747 5751 5754 5757 5760 5763 5765 5767 5769 5771 5772 5773 5774 5776 5777 5777 5778 5777 5778 5777 5777 5776 5775 5774 5773 5772 5771 5769 5768 5767 5765 5764 5762 5761 5760 5758 5757 5755 5754 5752 5750 5748
5734 5738 5742 5745 5748 5751 5754 5756 5758 5760 5761 5762 5763 5764 5765 5766 5766 5768 5768 5768 5767 5766 5766 5765 5764 5762 5761 5760 5759 5758 5756 5755 5754 5752 5751 5750 5749 5747 5746 5744 5743 5741 5739
5725 5729 5733 5736 5739 5743 5745 5747 5748 5750 5751 5753 5753 5754 5755 5755 5755 5755 5756 5757 5757 5756 5755 5754 5752 5751 5750 5749 5748 5747 5745 5744 5743 5742 5741 5740 5739 5738 5736 5735 5734 5732 5731
5717 5721 5725 5728 5731 5733 5736 5737 5739 5740 5742 5742 5743 5743 5744 5744 5745 5744 5744 5744 5744 5744 5743 5742 5741 5739 5738 5737 5736 5735 5734 5733 5732 5731 5730 5729 5728 5727 5726 5725 5724 5723 5722
5709 5713 5716 5719 5721 5724 5726 5728 5729 5731 5731 5732 5732 5733 5733 5733 5733 5732 5731 5731 5730 5730 5729 5729 5728 5727 5726 5725 5724 5724 5723 5722 5721 5720 5719 5719 5718 5717 5716 5715 5714 5713 5712
5701 5704 5707 5710 5713 5715 5716 5718 5720 5721 5721 5721 5722 5722 5722 5722 5721 5720 5718 5717 5716 5716 5716 5716 5715 5714 5713 5712 5712 5711 5711 5710 5710 5709 5709 5708 5707 5706 5705 5705 5704 5703 5702
5692 5695 5698 5701 5703 5705 5707 5708 5710 5710 5711 5711 5711 5710 5710 5709 5708 5706 5705 5703 5701 5700 5702 5702 5701 5701 5700 5699 5699 5698 5698 5698 5698 5698 5697 5696 5696 5695 5695 5694 5694 5693 5692
5684 5687 5689 5692 5694 5696 5698 5698 5699 5699 5700 5700 5699 5698 5697 5696 5695 5693 5691 5689 5687 5686 5686 5688 5687 5687 5686 5686 5685 5686 5686 5686 5686 5685 5685 5685 5685 5684 5684 5683 5683 5683 5682
5676 5678 5681 5683 5685 5686 5687 5688 5688 5688 5688 5688 5687 5685 5684 5682 5680 5679 5677 5675 5673 5671 5671 5672 5672 5672 5671 5672 5672 5672 5672 5672 5673 5673 5673 5673 5673 5673 5672 5673 5673 5672 5672
5668 5670 5672 5674 5675 5676 5676 5677 5676 5676 5675 5675 5673 5671 5670 5667 5665 5663 5661 5660 5658 5657 5655 5656 5657 5657 5657 5657 5657 5658 5658 5659 5659 5660 5661 5661 5661 5661 5661 5661 5662 5662 5661
5660 5662 5663 5664 5665 5665 5665 5665 5664 5663 5662 5661 5658 5656 5655 5652 5650 5648 5646 5644 5642 5641 5640 5639 5640 5641 5641 5642 5643 5643 5644 5645 5645 5646 5647 5648 5648 5649 5649 5650 5650 5651 5651
5653 5654 5655 5655 5656 5655 5654 5653 5651 5649 5648 5645 5643 5641 5638 5635 5633 5631 5629 5627 5625 5624 5623 5622 5623 5624 5625 5626 5627 5628 5629 5630 5632 5633 5634 5635 5636 5637 5638 5638 5639 5639 5640
5646 5646 5646 5646 5645 5643 5642 5640 5638 5636 5633 5631 5628 5624 5621 5618 5615 5612 5610 5609 5606 5605 5605 5605 5605 5607 5609 5610 5612 5613 5614 5616 5617 5619 5620 5622 5623 5624 5625 5626 5627 5628 5629
5638 5637 5636 5635 5634 5632 5630 5627 5625 5622 5619 5616 5612 5609 5605 5601 5597 5594 5591 5589 5588 5587 5587 5587 5588 5590 5592 5594 5596 5598 5599 5601 5603 5606 5607 5609 5610 5612 5613 5615 5615 5617 5618
5630 5628 5627 5625 5623 5620 5618 5614 5611 5608 5604 5600 5596 5592 5588 5584 5580 5576 5573 5571 5570 5568 5568 5569 5570 5573 5576 5579 5581 5583 5585 5587 5590 5592 5594 5596 5598 5600 5601 5603 5604 5605 5607
5621 5619 5617 5614 5612 5608 5605 5601 5597 5593 5589 5584 5580 5576 5572 5568 5563 5558 5556 5554 5552 5552 5552 5552 5554 5556 5559 5562 5565 5568 5570 5573 5576 5578 5581 5584 5585 5588 5590 5592 5593 5595 5596
5612 5609 5606 5602 5599 5595 5591 5587 5583 5579 5574 5570 5565 5560 5555 5550 5546 5541 5538 5537 5536 5536 5535 5536 5537 5540 5543 5546 5549 5552 5555 5559 5562 5565 5568 5571 5574 5576 5578 5580 5582 5584 5586
5602 5599 5595 5591 5587 5583 5578 5574 5568 5564 5560 5556 5550 5544 5538 5533 5528 5524 5521 5520 5519 5520 5520 5520 5522 5524 5527 5531 5534 5538 5541 5545 5548 5552 5555 5559 5562 5564 5567 5569 5571 5573 5575
Wind_Speed
40 39 39 38 37 35 34 32 31 30 29 28 28 28 28 28 27 27 27 27 28 28 29 29 30 31 31 31 32 32 33 33 33 33 33 33 33 33 33 33 33 32 32
40 40 40 40 39 38 36 35 33 32 31 31 31 30 30 29 29 29 29 29 29 30 31 31 32 32 33 33 33 33 34 34 34 34 34 34 34 34 35 34 34 33 34
41 41 41 41 41 40 39 38 36 35 34 33 33 33 32 31 31 31 32 32 32 32 33 33 34 34 34 35 35 35 35 35 36 36 36 36 36 36 35 35 34 34 35
42 42 42 42 42 41 41 39 38 37 36 36 35 34 34 33 33 34 34 33 33 34 35 35 35 35 36 36 36 37 37 38 38 38 38 37 37 37 36 36 35 35 35
44 44 43 43 43 43 42 41 40 39 38 37 37 37 36 36 35 35 35 35 35 35 36 37 37 37 37 38 39 39 40 40 40 40 39 38 38 37 36 36 36 36 36
45 45 45 44 43 43 43 43 41 40 39 39 39 38 38 38 38 38 38 37 37 37 38 38 39 39 40 41 41 41 42 41 41 40 40 39 39 38 37 37 37 37 37
47 46 45 44 43 43 43 44 43 42 42 42 41 41 41 41 41 40 40 40 40 40 40 40 41 42 42 43 43 43 43 42 42 41 40 40 40 39 39 39 39 39 39
46 45 44 44 43 44 44 44 44 44 44 44 44 44 44 43 42 42 42 42 42 42 42 43 43 43 44 44 45 44 44 44 44 43 43 42 41 40 40 40 40 40 40
48 47 45 44 44 45 45 45 46 46 47 47 46 46 45 44 44 44 43 43 44 44 44 45 44 45 45 46 46 45 45 46 46 45 44 43 42 41 41 41 40 40 40
50 49 47 46 45 45 46 46 46 47 47 47 47 47 47 47 47 46 44 44 45 45 46 46 47 47 48 48 47 47 47 47 46 45 45 44 43 42 42 42 41 41 40
50 49 47 47 47 46 45 46 46 45 46 47 47 48 48 47 47 46 46 46 47 47 48 48 48 48 49 49 49 49 49 48 46 45 45 44 43 42 42 42 41 41 40
48 47 47 46 45 45 45 44 44 45 45 45 46 47 48 48 47 48 49 49 49 49 50 50 50 50 50 50 50 50 50 49 47 46 45 44 44 43 43 43 42 42 41
43 43 43 43 43 43 44 44 44 45 44 45 45 46 48 48 49 50 52 52 52 52 51 51 51 52 52 53 52 51 50 50 48 47 46 45 45 44 44 43 42 42 42
41 42 43 44 44 44 45 43 43 44 44 45 46 47 49 50 51 53 54 54 55 54 54 53 53 54 54 53 52 51 50 48 47 47 46 46 45 45 44 43 43 42 42
39 40 40 41 42 43 43 43 44 45 46 46 47 48 50 51 54 55 56 56 56 56 55 55 55 54 53 53 52 51 49 48 47 47 45 45 46 45 44 44 43 42 41
35 36 37 38 39 41 43 44 45 46 46 48 49 50 51 52 53 54 55 56 56 57 57 55 55 55 55 54 52 51 50 48 47 47 46 46 45 45 44 43 42 41 40
32 33 35 36 37 39 41 42 44 46 48 50 52 52 53 54 55 56 57 57 57 59 59 57 57 56 54 53 52 51 50 49 48 47 46 46 46 45 43 43 42 40 39
30 32 33 34 36 38 41 44 45 47 49 50 51 53 55 56 57 58 57 57 57 58 59 58 57 56 55 53 52 52 53 52 50 49 47 46 46 45 44 43 42 41 39
28 31 33 35 37 40 42 45 47 48 50 52 53 55 56 57 59 60 59 59 60 60 60 60 58 56 54 54 53 53 53 52 51 51 49 47 46 45 45 44 43 41 39
27 31 34 36 38 41 42 44 46 48 50 52 55 56 58 59 60 61 62 62 63 63 62 59 57 55 54 53 53 53 53 53 52 51 51 49 48 46 45 43 42 40 38
28 31 33 35 37 39 41 44 46 48 50 51 53 56 58 60 61 62 62 63 63 62 60 58 57 56 55 55 54 54 54 53 52 51 50 49 47 46 44 42 40 39 37
28 30 32 34 37 39 42 44 46 48 49 51 53 54 56 58 59 60 62 62 62 59 58 57 57 57 56 55 54 54 53 52 51 49 48 47 45 44 42 40 39 37 36
29 32 34 36 38 40 43 45 47 49 51 52 53 53 55 56 58 58 58 58 57 56 55 55 55 56 55 53 53 53 53 51 49 48 46 45 43 42 41 39 37 35 34
30 33 36 38 40 43 45 47 49 50 51 51 51 53 54 55 55 55 54 54 54 53 52 53 53 53 53 53 53 52 51 50 48 46 44 43 42 41 39 37 35 34 34
32 35 38 40 42 44 45 47 49 50 50 50 51 53 54 53 53 52 52 52 51 51 51 51 52 51 50 50 51 50 48 47 45 43 41 41 40 39 38 36 35 34 33
34 36 38 40 42 44 45 47 49 50 50 50 51 53 54 53 51 50 50 50 49 49 49 50 50 50 50 48 47 46 46 46 44 42 41 41 39 38 37 36 35 34 33
Wind_Direction
245 245 244 246 248 249 250 252 253 255 257 258 260 261 263 265 266 268 270 271 273 274 276 278 280 282 283 285 286 288 289 291 294 296 298 299 301 303 305 306 308 309 310
244 244 244 245 247 249 250 251 252 253 255 256 258 260 263 264 266 267 269 271 273 275 277 279 281 282 284 285 287 288 290 291 292 294 296 297 298 300 302 304 305 306 308
242 243 244 245 246 248 249 250 251 252 255 257 258 260 262 264 266 267 269 270 272 274 276 278 280 282 284 285 286 288 289 290 291 293 294 295 297 298 300 302 303 304 307
241 242 243 244 245 247 249 250 251 252 255 257 258 260 262 263 265 267 268 270 272 274 276 278 280 282 283 284 285 287 288 289 290 291 292 293 295 296 298 299 300 302 305
240 242 243 245 247 247 248 250 252 253 255 257 259 260 262 263 264 267 268 270 271 273 275 277 279 281 283 283 284 285 287 288 290 290 291 292 293 294 295 296 298 300 302
240 240 242 245 246 247 249 251 252 254 255 257 259 260 262 263 265 267 268 269 270 272 274 276 277 280 281 282 283 285 286 288 289 289 289 289 291 293 294 294 296 297 299
240 241 243 244 245 246 248 251 252 254 256 257 259 261 262 264 265 265 267 268 270 272 273 275 276 278 279 281 282 284 285 287 288 288 288 288 290 291 292 294 294 296 298
239 241 243 244 244 246 248 251 253 255 257 258 260 262 262 263 264 265 267 268 271 272 273 275 276 277 277 279 281 282 284 285 286 286 286 287 289 289 291 293 294 295 297
239 240 241 243 245 247 250 252 255 256 258 260 260 262 264 264 265 265 267 269 271 273 274 275 277 277 277 279 280 281 282 284 285 284 285 286 286 287 289 291 292 295 296
239 239 239 243 245 248 251 254 256 259 260 260 261 263 265 266 267 267 268 271 272 274 275 276 277 277 278 279 279 279 281 283 284 283 284 285 285 286 288 290 291 292 295
238 239 241 245 247 250 252 254 256 259 260 261 263 265 266 267 268 269 270 271 272 274 275 276 276 277 278 279 279 280 281 282 282 282 283 283 283 285 287 288 289 291 293
240 241 244 246 247 250 252 254 257 259 260 262 265 267 268 269 270 271 272 272 272 274 275 276 276 277 277 278 279 280 281 281 281 281 281 282 282 283 285 287 288 289 292
239 240 244 246 247 250 252 255 257 259 261 263 264 267 269 270 271 272 273 273 274 274 275 275 275 276 276 277 277 279 280 281 280 281 281 281 282 283 284 286 287 289 291
239 242 246 248 248 251 253 254 257 260 264 266 267 270 271 272 272 273 274 275 275 274 275 275 275 275 276 277 277 278 279 278 280 281 281 282 282 283 284 285 287 289 291
242 245 248 249 251 252 255 256 258 261 265 267 270 272 274 274 274 274 275 275 275 275 275 275 275 275 276 277 277 278 276 275 277 279 279 280 281 282 283 284 286 287 289
245 247 250 251 253 255 257 259 261 262 265 268 271 272 274 276 277 277 276 275 275 275 275 275 274 274 274 275 276 275 274 276 277 277 277 279 280 282 283 284 285 287 288
248 249 253 253 256 259 261 264 266 267 269 271 273 274 276 277 278 278 277 275 274 275 275 275 274 274 274 275 276 275 274 275 275 276 278 279 280 281 281 282 283 284 285
253 253 255 257 259 263 265 267 269 270 271 273 275 276 277 277 277 277 277 275 274 274 275 275 274 273 273 273 274 274 273 273 273 274 276 277 279 280 280 280 281 282 282
254 255 259 264 265 268 270 271 272 273 273 274 275 276 277 278 278 277 276 276 275 274 274 274 273 272 271 271 271 271 272 272 271 273 275 276 277 278 278 278 278 279 278
258 261 264 267 269 271 272 274 275 276 276 277 278 278 278 279 279 278 277 276 275 275 274 273 272 270 269 269 269 270 270 271 271 272 274 274 276 276 277 277 276 275 276
268 271 272 274 276 276 276 276 278 279 279 280 280 280 280 279 279 278 278 276 275 275 273 271 270 268 267 267 268 268 269 270 270 273 273 273 274 274 275 275 273 273 274
274 276 278 280 282 282 281 280 280 281 281 281 280 280 280 280 279 279 278 277 276 274 272 270 268 267 267 268 268 269 269 270 271 271 271 271 273 273 273 272 271 271 271
281 281 282 284 285 285 285 286 285 284 284 284 283 282 282 282 282 281 279 277 275 274 271 269 267 266 266 266 267 269 268 268 270 270 269 269 270 271 269 267 267 267 268
288 288 288 288 287 288 288 287 287 288 288 287 286 286 286 285 283 281 278 276 274 272 270 268 267 266 265 264 266 267 266 266 267 267 267 267 266 266 264 263 264 265 265
293 293 293 293 292 291 290 290 290 289 289 288 287 288 288 287 284 281 278 276 273 271 268 266 265 264 263 263 263 263 263 263 264 264 262 262 261 261 261 261 262 262 263
297 297 297 298 296 294 293 293 293 292 291 290 289 289 289 287 284 281 279 276 273 271 267 265 264 264 262 261 262 262 262 260 260 260 260 258 258 259 260 260 260 261 260